Regional Weather Roundup
Issued by NWS

Home | Current Version | Previous Version | Graphics & Text | Print | Product List | Glossary On
Versions: 1 2 3 4 5 6 7 8 9 10 11 12 13 14 15 16 17 18 19 20 21 22 23 24 25 26 27 28 29 30 31 32 33 34 35 36 37 38 39 40 41 42 43 44 45 46 47 48 49 50
000
ASUS45 KCYS 280110
RWRWY

WYOMING REGIONAL WEATHER ROUNDUP
NATIONAL WEATHER SERVICE CHEYENNE WY
700 PM MDT WED AUG 27 2014

NOTE:  "FAIR" INDICATES FEW OR NO CLOUDS BELOW 12,000 FEET
WITH NO SIGNIFICANT WEATHER AND/OR OBSTRUCTIONS TO VISIBILITY.

WYZ001-280200-
YELLOWSTONE NATIONAL PARK

CITY           SKY/WX    TMP DP  RH WIND       PRES   REMARKS
LK YELLOWSTONE   N/A     63  38  39 W6G16     30.33R
W YELLOWSTONE  NOT AVBL

$$
WYZ002>013-054>058-071-098>099-280200-
NORTHERN WYOMING

CITY           SKY/WX    TMP DP  RH WIND       PRES   REMARKS
JACKSON        SUNNY     70  39  32 CALM      30.22
CODY           MOCLDY    72  52  49 NE3       30.11F
GREYBULL       CLOUDY    76  49  38 S6        30.05S
WORLAND        CLOUDY    70  54  56 SW7       30.07F
SHERIDAN       CLOUDY    77  55  46 CALM      30.05F
BUFFALO        LGT RAIN  61  53  75 SE16      30.14R
GILLETTE       LGT RAIN  60  56  86 S14       30.10F
HULETT         CLOUDY    63  55  77 MISG      30.11
NEWCASTLE      MOCLDY    63  55  77 NW7       30.11

$$
WYZ014>020-022>026-101>103-280200-
CENTRAL WYOMING

CITY           SKY/WX    TMP DP  RH WIND       PRES   REMARKS
BIG PINEY      CLOUDY    55  49  80 S8        30.31S
PINEDALE       LGT RAIN  54  50  87 S3        30.32S
DUBOIS         FAIR      57  45  62 CALM      30.26F
LANDER         CLOUDY    62  49  62 CALM      30.17F
RIVERTON       CLOUDY    61  51  70 CALM      30.18F
CASPER         CLOUDY    63  52  67 W8        30.15S
DOUGLAS        CLOUDY    64  57  78 NW5       30.14R

$$
WYZ021-027>030-104>119-280200-
SOUTHERN WYOMING

CITY           SKY/WX    TMP DP  RH WIND       PRES   REMARKS
EVANSTON       CLOUDY    54  48  80 SW9       30.35R
KEMMERER       CLOUDY   N/A N/A N/A S8        30.34F
FORT BRIDGER     N/A     52  51  97 S6        30.37F
ROCK SPRINGS   CLOUDY    51  49  92 W12       30.29F
DIXON          CLOUDY    55  51  85 CALM      30.30R
RAWLINS        MOCLDY    57  46  66 W10       30.25S
SARATOGA       MOCLDY    52  45  76 W9        30.28R
LARAMIE        MOCLDY    59  45  59 NW6       30.25R
CHEYENNE       CLOUDY    61  51  70 N9        30.17F
TORRINGTON     MOCLDY    67  59  75 W5        30.09R
PINE BLUFFS    FAIR      61  50  67 NW12      30.13F

$$



USA.gov is the U.S. government's official web portal to all federal, state and local government web resources and services.